Regional Weather Roundup
Issued by NWS

Home | Current Version | Previous Version | Text Only | Print | Product List | Glossary Off
Versions: 1 2 3 4 5 6 7 8 9 10 11 12 13 14 15 16 17 18 19 20 21 22 23 24 25 26 27

000
ASUS43 KDMX 251207
RWRIA

WEATHER ROUNDUP FOR IOWA
NATIONAL WEATHER SERVICE DES MOINES IA
700 AM CDT SAT OCT 25 2014

NOTE: "FAIR" INDICATES FEW OR NO CLOUDS BELOW 12,000 FEET WITH NO
SIGNIFICANT WEATHER AND/OR OBSTRUCTIONS TO VISIBILITY.

* - THESE STATIONS ARE NOT NWS STATIONS...THUS NOT UNDER NWS
QUALITY CONTROL.  THEY ALSO DO NOT REPORT WEATHER SUCH
AS PRECIPITATION OR FOG.

IAZ001>003-012>014-020>022-031>034-043>046-251300-
   NORTHWEST IOWA

CITY           SKY/WX    TMP DP  RH WIND       PRES   REMARKS
CARROLL *      CLEAR     46  43  87 NW5       30.07R
CHEROKEE *     CLEAR     42  42 100 CALM      30.09R
DENISON *      CLEAR     43  43 100 CALM      30.06R
LE MARS *      CLEAR     39  39 100 CALM      30.10R
ORANGE CITY *  CLEAR     43  37  81 CALM      30.09R
SHELDON *      CLEAR     43  41  93 N5        30.07R
SIOUX CITY     CLEAR     43  41  93 W5        30.09R
6HR MIN TEMP:  42; 6HR MAX TEMP:  48;

SPENCER        CLEAR     44  37  76 N5        30.07R
6HR MIN TEMP:  42; 6HR MAX TEMP:  51;

STORM LAKE *   CLEAR     54  37  54 N9        30.08R
$$

IAZ055>058-069>071-079>083-090>094-251300-
   SOUTHWEST IOWA

CITY           SKY/WX    TMP DP  RH WIND       PRES   REMARKS
AUDUBON *      CLEAR     45  39  81 CALM      30.07R
CLARINDA *     FOG       45  45 100 CALM      30.06S VSB 1/2
COUNCIL BLFS * CLEAR     52  50  93 N9        30.04R
CRESTON *      CLEAR     55  45  67 N10       30.04R
HARLAN  *      CLEAR     45  45 100 N5        30.09S
LAMONI           N/A     51  49  92 N6        30.03S
6HR MIN TEMP:  50; 6HR MAX TEMP:  55;

RED OAK *      FOG       43  43 100 CALM      30.05S VSB 1/4
SHENANDOAH *   FOG       45  45 100 CALM      30.06S VSB 0
$$

IAZ047>049-059>061-072>074-084-251300-
   CENTRAL IOWA

CITY           SKY/WX    TMP DP  RH WIND       PRES   REMARKS
AMES           CLEAR     47  42  83 N7        30.03R
6HR MIN TEMP:  45; 6HR MAX TEMP:  52;

ANKENY *       CLEAR     48  45  87 CALM      30.03R
CHARITON *     CLEAR     50  48  93 NW7       30.03R
DES MOINES     CLEAR     55  43  63 N9        30.02S
6HR MIN TEMP:  52; 6HR MAX TEMP:  57;

GRINNELL*      CLEAR     49  48  97 NW6       30.02R
KNOXVILLE *    CLEAR     48  48 100 N7        30.00S
MARSHALLTOWN   CLEAR     45  42  89 NW5       30.02R
6HR MIN TEMP:  45; 6HR MAX TEMP:  54;

PELLA *        CLEAR     49  48  99 N5        30.02S
PERRY *          N/A     46  43  87 NW3       30.05R
$$

IAZ004>006-015-016-023>025-035-036-251300-
   NORTH CENTRAL IOWA

CITY           SKY/WX    TMP DP  RH WIND       PRES   REMARKS
ALGONA *       CLEAR     48  41  76 NW6       30.05S
CLARION *      CLEAR     46  41  81 NW6       30.05R
ESTHERVILLE    CLEAR     47  36  65 NW9       30.06R
6HR MIN TEMP:  46; 6HR MAX TEMP:  55;

FORT DODGE *   CLEAR     48  39  71 N3        30.06R
MASON CITY     CLEAR     48  40  73 NW9       30.04R
6HR MIN TEMP:  44; 6HR MAX TEMP:  52;

FOREST CITY *  CLEAR     50  41  71 NW7       30.04R
IOWA FALLS *     N/A     46  41  81 NW5       30.04S
$$

IAZ007>011-017>019-026>030-037>042-050>054-066-251300-
   NORTHEAST IOWA

CITY           SKY/WX    TMP DP  RH WIND       PRES   REMARKS
CEDAR RAPIDS   CLEAR     46  46 100 NW8       29.98S
6HR MIN TEMP:  45; 6HR MAX TEMP:  54;

CHARLES CITY * CLEAR     43  41  93 NW6       30.02R
CLINTON *      CLOUDY    54  52  94 W6        29.98R VSB 1/4
DECORAH *      CLEAR     48  45  87 CALM      29.98R
DUBUQUE        CLEAR     52  48  86 NW12      29.96R
6HR MIN TEMP:  51; 6HR MAX TEMP:  59;

MONTICELLO *   PTCLDY    48  48 100 CALM      29.98R FOG
OELWEIN *      CLEAR     46  45  93 NW8       30.01R
WATERLOO       CLEAR     46  43  89 NW5       30.01R
6HR MIN TEMP:  44; 6HR MAX TEMP:  55;

$$

IAZ064-065-067-068-078-251300-
   EAST CENTRAL IOWA

CITY           SKY/WX    TMP DP  RH WIND       PRES   REMARKS
DAVENPORT      FOG       52  51  97 W8        29.97R VSB 1/4
6HR MIN TEMP:  51; 6HR MAX TEMP:  56;

IOWA CITY      CLEAR     52  49  89 NW8       29.99S
6HR MIN TEMP:  45; 6HR MAX TEMP:  53;

MT. PLEASANT * FOG       46  46 100 CALM      29.99R VSB 1/4
MUSCATINE *    PTCLDY    50  50 100 NW6       29.99R FOG
QUAD CITIES    FOG       54  53  97 W7        29.97R VSB 1/2
6HR MIN TEMP:  48; 6HR MAX TEMP:  56;

$$

IAZ062-063-075>077-085>089-095>099-251300-
   SOUTHEAST IOWA

CITY           SKY/WX    TMP DP  RH WIND       PRES   REMARKS
BURLINGTON     FOG       50  50 100 SW5       29.97S VSB 1/4
6HR MIN TEMP:  49; 6HR MAX TEMP:  57;

FAIRFIELD *      N/A     48  46  93 W5        30.00R
FORT MADISON * FOG       52  52 100 S5        29.99F VSB 1/4
KEOKUK *       FOG       52  52 100 W5        30.00R VSB 0
OSKALOOSA *      N/A     47  47  98 NW6       30.01R
CENTERVILLE *  CLEAR     48  48 100 W6        30.04R
OTTUMWA        CLEAR     50  47  89 NW8       30.00R
6HR MIN TEMP:  48; 6HR MAX TEMP:  56;

WASHINGTON *   CLEAR     50  50 100 NW8       29.99R
$$

ABBREVIATIONS USED IN REMARKS
   TC - TEMPERATURES IN CELSIUS
  WCI - WIND CHILL INDEX
   HX - HEAT INDEX
  VSB - VISIBILITY
$$




USA.gov is the U.S. government's official web portal to all federal, state and local government web resources and services.